McAlester, OK

2:49 PM CST on November 13, 2019 (GMT -0600)
McAlester Regional

Weather History for KMLC - August, 2019

Change the Weather History Date:

Friday, August 2, 2019

  Actual Average Record
Temperature  
Mean Temperature 80 °F -  
Max Temperature 86 °F 92 °F 111 °F (2011)
Min Temperature 75 °F 70 °F 58 °F (1965)
Cooling Degree Days 14    
Growing Degree Days 30 (Base 50)    
Moisture  
Dew Point 72 °F    
Average Humidity 78    
Maximum Humidity 87    
Minimum Humidity 65    
Precipitation  
Precipitation 0.00 in - - ()
Sea Level Pressure  
Sea Level Pressure 29.99 in    
Wind  
Wind Speed 4 mph (SE)    
Max Wind Speed 8 mph    
Max Gust Speed -    
Visibility 10 miles    
Events      
Averages and records for this station are not official NWS values.
T = Trace of Precipitation, MM = Missing Value Source: NWS Daily Summary

Daily Weather History Graph

Daily Weather History Graph

Search for Another Location

Airport or City:

Astronomy

Aug. 02, 2019 Rise Set
Actual Time 6:33 AM CDT 8:24 PM CDT
Civil Twilight 6:05 AM CDT 8:52 PM CDT
Nautical Twilight 5:32 AM CDT 9:25 PM CDT
Astronomical Twilight 4:56 AM CDT 10:01 PM CDT
Moon 8:11 AM CDT (8/2) 9:58 PM CDT (8/2)
Length of Visible Light 14h 46m
Length of Day
13h 51m
Waxing Crescent, 4% of the Moon is Illuminated
Aug 2
Waxing Crescent
Aug 7
First Quarter
Aug 15
Full
Aug 23
Last Quarter
Aug 30
New

Hourly Weather History & Observations

Time (CDT) Temp. Heat Index Dew Point Humidity Pressure Visibility Wind Dir Wind Speed Gust Speed Precip Events Conditions
12:53 AM 77.0 °F - 72.0 °F 84% 30.02 in 10.0 mi ESE 4.6 mph - N/A   Mostly Cloudy
1:53 AM 77.0 °F - 72.0 °F 84% 30.01 in 10.0 mi ESE 4.6 mph - N/A   Clear
2:53 AM 75.9 °F - 72.0 °F 87% 29.99 in 9.0 mi ESE 3.5 mph - N/A   Clear
3:53 AM 77.0 °F - 72.0 °F 84% 29.96 in 10.0 mi SE 4.6 mph - N/A   Clear
4:53 AM 78.1 °F - 72.0 °F 81% 29.97 in 10.0 mi Variable 5.8 mph - N/A   Clear
5:53 AM 77.0 °F - 72.0 °F 84% 29.99 in 10.0 mi Calm Calm - N/A   Clear
6:53 AM 77.0 °F - 72.0 °F 84% 30.03 in 10.0 mi Calm Calm - N/A   Clear
7:53 AM 77.0 °F - 72.0 °F 84% 30.03 in 10.0 mi SE 3.5 mph - N/A   Scattered Clouds
8:53 AM 79.0 °F - 73.0 °F 82% 30.04 in 10.0 mi SSW 3.5 mph - N/A   Clear
9:53 AM 80.1 °F 84.2 °F 73.0 °F 79% 30.05 in 10.0 mi Calm Calm - N/A   Partly Cloudy
10:53 AM 80.1 °F 84.5 °F 73.9 °F 81% 30.06 in 10.0 mi Calm Calm - 0.00 in   Scattered Clouds
11:53 AM 81.0 °F 85.8 °F 73.0 °F 77% 30.06 in 10.0 mi East 3.5 mph - 0.00 in   Partly Cloudy
12:53 PM 80.1 °F 84.5 °F 73.9 °F 81% 30.04 in 10.0 mi Variable 4.6 mph - 0.00 in   Clear
1:53 PM 81.0 °F 85.8 °F 73.0 °F 77% 30.01 in 10.0 mi Variable 3.5 mph - N/A   Mostly Cloudy
2:53 PM 82.0 °F 87.4 °F 73.0 °F 74% 30.00 in 10.0 mi Variable 3.5 mph - N/A   Partly Cloudy
3:53 PM 84.0 °F 89.6 °F 72.0 °F 67% 29.98 in 10.0 mi Variable 3.5 mph - N/A   Clear
4:53 PM 84.9 °F 90.7 °F 72.0 °F 65% 29.96 in 10.0 mi SE 8.1 mph - N/A   Clear
5:53 PM 84.0 °F 90.2 °F 73.0 °F 69% 29.92 in 10.0 mi Variable 5.8 mph - N/A   Clear
6:53 PM 84.0 °F 90.2 °F 73.0 °F 69% 29.92 in 10.0 mi Variable 5.8 mph - N/A   Clear
7:53 PM 81.0 °F 84.4 °F 70.0 °F 69% 29.92 in 10.0 mi SE 3.5 mph - N/A   Clear
8:53 PM 79.0 °F - 70.0 °F 74% 29.93 in 10.0 mi Calm Calm - N/A   Clear
9:53 PM 79.0 °F - 71.1 °F 77% 29.96 in 10.0 mi East 3.5 mph - N/A   Partly Cloudy
10:53 PM 79.0 °F - 71.1 °F 77% 29.96 in 10.0 mi ESE 3.5 mph - N/A   Partly Cloudy
11:53 PM 78.1 °F - 72.0 °F 81% 29.97 in 10.0 mi ESE 5.8 mph - N/A   Overcast